Regional Weather Roundup
Issued by NWS

Home | Current Version | Previous Version | Graphics & Text | Print | Product List | Glossary On
Versions: 1 2 3 4 5 6 7 8 9 10 11 12 13 14 15 16 17 18 19 20 21 22 23 24 25 26 27 28 29 30 31 32 33 34 35 36 37 38 39 40 41 42 43 44 45 46 47 48 49 50
000
ASUS43 KLMK 211302
RWRKY
KENTUCKY REGIONAL WEATHER ROUNDUP
NATIONAL WEATHER SERVICE LOUISVILLE KY
800 AM EST SUN DEC 21 2014

NOTE "FAIR" INDICATES FEW OR NO CLOUDS BELOW 12,000 FEET
WITH NO SIGNIFICANT WEATHER AND/OR OBSTRUCTIONS TO VISIBILITY.

KYZ001>023-026-027-061>063-070>075-211400-
WESTERN AND SOUTH CENTRAL KENTUCKY

CITY           SKY/WX    TMP DP  RH WIND       PRES   REMARKS
PADUCAH        CLEAR     24  21  88 CALM      30.24S
HENDERSON      CLEAR     25  21  86 E5        30.28S WCI  19
OWENSBORO      CLEAR     25  24  96 CALM      30.29S FOG
HOPKINSVILLE   CLEAR     24  22  90 E3        30.25S
BOWLING GREEN  CLEAR     22  19  89 CALM      30.28R FOG
GLASGOW        NOT AVBL
$$

KYZ024-025-028>034-038-045-046-053-211400-
NORTH CENTRAL KENTUCKY

CITY           SKY/WX    TMP DP  RH WIND       PRES   REMARKS
LOUISVILLE/SDF PTCLDY    26  23  88 CALM      30.31R FOG
LOUISVILLE/LOU CLEAR     24  21  88 CALM      30.31R FOG
FORT KNOX      CLEAR     24  22  92 NE5       30.27R WCI  18
$$

KYZ035>037-039>044-047>052-055>060-089>105-211400-
NORTHEAST KENTUCKY

CITY           SKY/WX    TMP DP  RH WIND       PRES   REMARKS
LEXINGTON      CLEAR     25  23  92 E8        30.29R FOG     WCI  16
COVINGTON      PTCLDY    27  20  75 E5        30.29S WCI  22
FRANKFORT      CLEAR     21  17  84 CALM      30.29R FOG
$$

KYZ054-064>069-076>088-106>120-211400-
SOUTHEAST KENTUCKY

CITY           SKY/WX    TMP DP  RH WIND       PRES   REMARKS
JACKSON        CLEAR     26  23  88 NE3       30.27R FOG
LONDON         CLEAR     23  32 100 CALM      30.27R HAZE
SOMERSET       NOT AVBL
MIDDLESBORO    CLOUDY    23  23  99 CALM      30.28S FOG
MONTICELLO     SUNNY     18  17  95 CALM      30.30R FOG
$$




USA.gov is the U.S. government's official web portal to all federal, state and local government web resources and services.